Location: Newark
(43.9494°N, 6.8108°E)
Time: 19:30:30
(UTC+00:00)

A-11 Canister half - Pass Details

Date: 30 October 2019
Orbit: 1514 x 1686 km, 47.2° (Epoch: 18 November)

Event Time Altitude Azimuth Distance (km) Brightness Sun altitude
Rises 04:08:45 0° 292° (WNW) 4,874 - -21.6°
Reaches altitude 10° 04:11:55 10° 291° (WNW) 3,864 - -21.0°
Exits shadow 04:15:41 27° 288° (WNW) 2,726 9.7 -20.3°
Maximum altitude 04:21:43 76° 209° (SSW) 1,629 9.0 -19.2°
Drops below altitude 10° 04:31:07 10° 125° (SE) 3,720 11.9 -17.6°
Sets 04:34:08 0° 124° (SE) 4,684 12.6 -17.0°
